Weather History for KPSP - December, 2012

Change the Weather History Date:

Wednesday, December 26, 2012

  Actual Average Record
Temperature  
Mean Temperature 51 °F 55 °F  
Max Temperature 65 °F 66 °F 84 °F (1933)
Min Temperature 37 °F 44 °F 28 °F (1987)
Degree Days  
Heating Degree Days 14 10  
Month to date heating degree days 194 243  
Since 1 July heating degree days 229 339  
Cooling Degree Days 0 0  
Month to date cooling degree days 21 0  
Year to date cooling degree days 4726 4137  
Growing Degree Days 2 (Base 50)    
Moisture  
Dew Point 31 °F    
Average Humidity 45    
Maximum Humidity 64    
Minimum Humidity 26    
Precipitation  
Precipitation T in 0.04 in 1.20 in (1927)
Month to date precipitation 0.19 0.65  
Year to date precipitation 2.01 5.51  
Since 1 July precipitation 1.22 2.57  
Snow  
Snow 0.00 in - - ()
Month to date snowfall 0.0  
Year to date snowfall 0.0  
Since 1 July snowfall 0.0  
Snow Depth 0.00 in    
Sea Level Pressure  
Sea Level Pressure 29.89 in    
Wind  
Wind Speed 4 mph (NNW)    
Max Wind Speed 17 mph    
Max Gust Speed 25 mph    
Visibility 10 miles    
Events      
T = Trace of Precipitation, MM = Missing Value Source: NWS Daily Summary

Daily Weather History Graph

Daily Weather History Graph

Search for Another Location

Airport or City:

Trip Planner

Search our weather history database for the weather conditions in past years. The results will help you decide how hot, cold, wet, or windy it might be!

Date:

Astronomy

Dec. 26, 2012 Rise Set
Actual Time 6:49 AM PST 4:44 PM PST
Civil Twilight 6:21 AM PST 5:12 PM PST
Nautical Twilight 5:50 AM PST 5:43 PM PST
Astronomical Twilight 5:20 AM PST 6:13 PM PST
Moon 3:40 PM PST (12/26) 5:17 AM PST (12/26)
Length of Visible Light 10h 50m
Length of Day
9h 54m
Waxing Gibbous, 98% of the Moon is Illuminated
Dec 26
Waxing Gibbous
Dec 28
Full
Jan 4
Last Quarter
Jan 11
New
Jan 18
First Quarter

Hourly Weather History & Observations

Time (PST) Temp. Windchill Dew Point Humidity Pressure Visibility Wind Dir Wind Speed Gust Speed Precip Events Conditions
12:53 AM 43.0 °F 38.8 °F 21.9 °F 43% 29.96 in 10.0 mi NNW 6.9 mph - N/A   Clear
1:53 AM 39.9 °F - 27.0 °F 60% 29.94 in 10.0 mi Calm Calm - N/A   Clear
2:53 AM 42.1 °F 40.2 °F 26.1 °F 53% 29.93 in 10.0 mi North 3.5 mph - N/A   Clear
3:53 AM 39.9 °F - 28.0 °F 63% 29.91 in 10.0 mi Calm Calm - N/A   Clear
4:53 AM 41.0 °F 38.0 °F 28.0 °F 60% 29.90 in 10.0 mi Variable 4.6 mph - N/A   Clear
5:53 AM 41.0 °F - 28.0 °F 60% 29.90 in 10.0 mi Calm Calm - N/A   Partly Cloudy
6:53 AM 41.0 °F - 27.0 °F 57% 29.92 in 10.0 mi Calm Calm - N/A   Mostly Cloudy
7:53 AM 45.0 °F - 24.1 °F 44% 29.91 in 10.0 mi Calm Calm - N/A   Mostly Cloudy
8:53 AM 50.0 °F - 25.0 °F 38% 29.93 in 10.0 mi Calm Calm - 0.00 in   Overcast
9:53 AM 52.0 °F - 30.9 °F 45% 29.94 in 10.0 mi SW 4.6 mph - 0.00 in   Overcast
10:53 AM 52.0 °F - 28.0 °F 40% 29.92 in 10.0 mi Calm Calm - N/A   Scattered Clouds
11:53 AM 57.9 °F - 24.1 °F 27% 29.88 in 10.0 mi ESE 5.8 mph - N/A   Scattered Clouds
12:53 PM 61.0 °F - 30.9 °F 32% 29.85 in 10.0 mi ESE 6.9 mph - N/A   Clear
1:53 PM 63.0 °F - 34.0 °F 34% 29.82 in 10.0 mi East 10.4 mph - N/A   Clear
2:53 PM 64.9 °F - 28.9 °F 26% 29.82 in 10.0 mi SE 10.4 mph - N/A   Scattered Clouds
3:53 PM 63.0 °F - 30.0 °F 29% 29.81 in 10.0 mi NNE 8.1 mph 17.3 mph N/A   Clear
4:15 PM 60.8 °F - 35.6 °F 39% 29.81 in 10.0 mi NW 12.7 mph 31.1 mph N/A   Clear
4:53 PM 57.9 °F - 37.0 °F 46% 29.83 in 10.0 mi NW 17.3 mph 23.0 mph N/A   Clear
5:53 PM 55.9 °F - 37.9 °F 51% 29.86 in 10.0 mi North 8.1 mph - N/A   Clear
6:53 PM 54.0 °F - 39.0 °F 57% 29.88 in 10.0 mi SSW 6.9 mph - N/A   Clear
7:53 PM 53.1 °F - 39.0 °F 59% 29.90 in 10.0 mi North 6.9 mph - N/A   Clear
8:53 PM 53.1 °F - 37.9 °F 57% 29.90 in 10.0 mi WSW 3.5 mph - N/A   Clear
9:53 PM 53.1 °F - 37.9 °F 57% 29.91 in 10.0 mi Calm Calm - N/A   Clear
10:53 PM 51.1 °F - 37.9 °F 61% 29.91 in 10.0 mi Calm Calm - N/A   Clear
11:53 PM 48.9 °F - 37.9 °F 66% 29.90 in 10.0 mi West 5.8 mph - N/A   Clear